Regional Weather Roundup
Issued by NWS Newport/Morehead, NC

Current Version | Previous Version | Graphics & Text | Print | Product List | Glossary Off
Versions: 1 2 3 4 5 6 7 8 9 10 11 12 13 14 15 16 17 18 19 20 21 22 23 24 25 26 27 28 29 30 31 32 33 34 35 36 37 38 39 40 41 42 43 44 45 46 47 48 49 50

000
ASUS42 KMHX 300310
RWRMHX
WEATHER ROUNDUP FOR EASTERN NORTH CAROLINA
NATIONAL WEATHER SERVICE NEWPORT/MOREHEAD CITY NC
1100 PM EDT WED OCT 29 2014

NOTE: "FAIR" INDICATES FEW OR NO CLOUDS BELOW 12,000 FEET
WITH NO SIGNIFICANT WEATHER AND/OR OBSTRUCTIONS TO VISIBILITY

NCZ015>017-031-032-045>047-102-103-300400-
NORTH COAST

CITY           SKY/WX    TMP DP  RH WIND       PRES   REMARKS
EDENTON        HVY RAIN  61  59  93 N9        29.97R
ELIZABETH CITY LGT RAIN  63  54  72 N13       29.98R
KITTY HAWK     MOCLDY    65  61  86 N7        29.93R
MANTEO         PTCLDY    65  64  94 N7        29.94R

$$

NCZ045>047-081-094-103-104-300400-
CENTRAL COAST

CITY           SKY/WX    TMP DP  RH WIND       PRES   REMARKS
FRISCO         PTCLDY    71  66  84 SW12      29.94S
SWANQUARTER      N/A     68 N/A N/A SW7       29.91S

$$

NCZ095-097-098-100-101-300400-
SOUTHERN COAST

CITY           SKY/WX    TMP DP  RH WIND       PRES   REMARKS
BEAUFORT       MOCLDY    71  67  87 SW8       29.94F
CEDAR ISLAND     N/A     68 N/A N/A S6G12     29.97S
JACKSONVILLE   CLOUDY    70  63  78 SW8       29.94S
PINEY ISLAND   PTCLDY    69  64  84 SW7       29.94S
WILMINGTON     CLOUDY    71  65  81 SW10      29.95S


$$

NCZ011>013-027>030-043-044-078>080-089-090>093-098-300400-
COASTAL PLAIN

CITY           SKY/WX    TMP DP  RH WIND       PRES   REMARKS
AHOSKIE        NOT AVBL
CLINTON        CLOUDY    67  63  87 N5        29.97R
ELIZABETHTOWN  MOCLDY    66  65  97 S5        29.94F
GOLDSBORO      MOCLDY    63  63 100 CALM      29.95S
GREENVILLE     MOCLDY    61  59  94 N5        29.99R
HAVELOCK       MOCLDY    70  65  84 SW7       29.95F
KENANSVILLE    CLOUDY    68  60  75 NW3       29.96S
KINSTON        MOCLDY    65  61  86 CALM      29.98R
NEW BERN       LGT RAIN  69  63  81 SW6       29.94F
RICHLANDS      CLOUDY    66  61  82 SW6       29.95R
ROCKY MOUNT    CLOUDY    59  56  89 NE7       29.97S
WASHINGTON     CLOUDY    62  59  90 N5        29.96S
WHITEVILLE     CLOUDY    66  65  96 CALM      29.95S FOG

$$

AMZ130-135-150-152-154-156-158-170-250-252-270-ANZ085-086-088-633-658-670-300400-
MARINE OBSERVATIONS

STATION/POSITION TIME  TEMP    WIND        PRES    WAVE   SWELL
                       AIR SEA DIR/SP/G            HT/PER HT/PER
                 (UTC) (F)     (DEG/KT/KT) (MB)    (FT/S) (FT/S)
CHESAPEAKE LIGHT 0200   60     360/ 22/ 23 1014.8
64 E VA BEACH    0300   65 67   10/ 17/ 21 1012.5    3/ 7
DUCK             0300   65 68   10/ 16/ 18 1013.0
2 E DUCK         NOT AVBL
10 NE DUCK       0300      67                N/A     3/ 7
OREGON INLET     0300   68 69  210/ 12/ 14 1013.3
13E OREGON INLT  0300      70                N/A     3/ 7
HATTERAS CG      0300   72 72  230/  8/ 12 1014.3
DIAMOND BUOY     0300   76     230/ 17/ 21 1013.8    4/ 4   2/ 9
17 S OCRACOKE    0200          VRB 17/ 19  1014.1
CAPE LOOKOUT     0200   72     220/  9/ 12 1014.2
BEAUFORT LAB     0300   71 71  220/  4/  6 1013.3
30 SE NEW RIVER  0300   75 74  230/ 16/ 19 1013.6    3/ 5
5 SE WRIGHTSVLE  0200   69 71  240/ 12/ 14   N/A
225 S CAPE HAT   0155   75 76  210/  6/  6 1017.3    2/ 8   2/ 8
41 SE CHARLESTON 0300   77 77  200/ 14/ 14 1014.7    2/ 4   2/ 9

$$



USA.gov is the U.S. government's official web portal to all federal, state and local government web resources and services.